EW2964 Weather Reports


time (UTC)temp
C
wind
direction
speed
KPH
gust
KPH
rain 1hr
cm
rain 24hr
cm
rain mn
cm
humidity
%
barometer
mb
20260906000903 21 314 3.2 4.8 0.00 2.11 2.11 89 1013.9
20260906000404 21 307 1.6 8.0 0.00 2.11 2.11 89 1013.9
20260906000028 21 263 1.6 6.4 0.00 2.11 2.11 91 1014.8
20260905235904 21 270 3.2 8.0 0.00 2.11 2.11 89 1013.8
20260905235404 21 293 3.2 8.0 0.00 2.11 2.11 89 1013.8
20260905234904 22 247 4.8 4.8 0.00 2.11 2.11 88 1013.9
20260905234530 22 296 3.2 4.8 0.00 2.11 2.11 89 1014.6
20260905234403 22 325 4.8 4.8 0.00 2.11 2.11 87 1013.9
20260905233902 22 303 3.2 8.0 0.00 2.11 2.11 87 1014.0
20260905233403 22 253 3.2 8.0 0.00 2.11 2.11 87 1014.0
20260905233009 22 306 1.6 4.8 0.00 2.11 2.11 87 1014.7
20260905232903 23 257 1.6 3.2 0.00 2.11 2.11 85 1014.1
20260905232403 23 255 1.6 3.2 0.00 2.11 2.11 83 1014.1
20260905231903 23 250 0.0 3.2 0.00 2.11 2.11 82 1014.2
20260905231514 23 250 0.0 6.4 0.00 2.11 2.11 83 1014.8
20260905231403 23 250 1.6 3.2 0.00 2.11 2.11 81 1014.2
20260905230902 24 242 3.2 4.8 0.00 2.11 2.11 79 1014.1
20260905230403 24 279 1.6 4.8 0.00 2.11 2.11 78 1014.2
20260905230026 24 336 1.6 11.3 0.00 2.11 2.11 80 1014.9
20260905225403 24 288 3.2 9.7 0.00 2.11 2.11 76 1014.3
20260905224505 24 313 0.0 3.2 0.00 2.11 2.11 75 1014.8
20260905224402 25 269 0.0 3.2 0.00 2.11 2.11 75 1014.0
20260905223903 25 339 0.0 3.2 0.00 2.11 2.11 75 1014.1
20260905223403 25 320 0.0 8.0 0.00 2.11 2.11 75 1014.1
20260905223007 24 320 3.2 12.9 0.00 2.11 2.11 76 1014.9
20260905222903 25 323 8.0 12.9 0.00 2.11 2.11 73 1014.1
20260905222403 25 315 8.0 12.9 0.00 2.11 2.11 73 1014.0
20260905221903 25 293 8.0 12.9 0.00 2.11 2.11 72 1014.1
20260905221517 25 313 4.8 12.9 0.00 2.11 2.11 74 1014.8
20260905221403 25 291 8.0 11.3 0.00 2.11 2.11 73 1014.1
20260905220903 25 303 4.8 12.9 0.00 2.11 2.11 71 1014.0
20260905220403 25 320 6.4 11.3 0.00 2.11 2.11 70 1013.7
20260905220018 25 219 6.4 20.9 0.00 2.11 2.11 72 1014.5
20260905215903 25 291 8.0 19.3 0.00 2.11 2.11 72 1013.6
20260905215403 25 324 9.7 20.9 0.00 2.11 2.11 72 1013.7
20260905214902 25 294 4.8 14.5 0.00 2.11 2.11 72 1013.7
20260905214526 25 325 6.4 14.5 0.00 2.11 2.11 74 1014.4
20260905214403 25 329 9.7 14.5 0.00 2.11 2.11 72 1013.7
20260905213903 25 325 6.4 16.1 0.00 2.11 2.11 72 1013.8
20260905213403 25 315 12.9 20.9 0.00 2.11 2.11 71 1013.7
20260905213007 25 318 6.4 17.7 0.00 2.11 2.11 73 1014.4
20260905211902 25 325 11.3 19.3 0.00 2.11 2.11 69 1013.4
20260905211507 25 304 8.0 16.1 0.00 2.11 2.11 72 1014.3
20260905211402 26 305 8.0 16.1 0.00 2.11 2.11 70 1013.4
20260905210903 26 327 9.7 14.5 0.00 2.11 2.11 69 1013.3
20260905210403 26 300 8.0 11.3 0.00 2.11 2.11 70 1013.4
20260905210014 25 360 4.8 16.1 0.00 2.11 2.11 71 1014.2
20260905205903 26 349 4.8 11.3 0.00 2.11 2.11 71 1013.4
20260905205402 25 266 9.7 16.1 0.00 2.11 2.11 69 1013.3
20260905204522 25 338 9.7 16.1 0.00 2.11 2.11 71 1014.3
20260905204403 25 317 9.7 16.1 0.00 2.11 2.11 70 1013.7
20260905203402 25 306 9.7 16.1 0.00 2.13 2.11 70 1013.5
20260905203028 25 323 11.3 19.3 0.00 2.13 2.11 70 1014.4
20260905202903 25 316 14.5 19.3 0.00 2.16 2.11 67 1013.6
20260905202403 25 304 11.3 19.3 0.00 2.16 2.11 67 1013.7
20260905201903 26 334 3.2 11.3 0.00 2.16 2.11 71 1013.6
20260905201530 25 24 6.4 11.3 0.00 2.18 2.11 70 1014.5
20260905201403 26 16 4.8 11.3 0.00 2.24 2.11 69 1013.6
20260905200903 25 13 3.2 11.3 0.00 2.29 2.11 70 1013.6
20260905200403 25 10 3.2 11.3 0.00 2.39 2.11 70 1013.7
20260905200013 25 319 9.7 17.7 0.00 2.51 2.11 70 1014.6
20260905195903 25 299 9.7 19.3 0.00 2.62 2.11 69 1013.9
20260905195402 25 300 8.0 14.5 0.00 3.48 2.11 70 1013.9
20260905194903 25 318 4.8 14.5 0.00 3.48 2.11 71 1014.0
20260905194518 25 309 6.4 17.7 0.00 3.48 2.11 73 1014.9
20260905193902 25 330 11.3 19.3 0.00 3.48 2.11 71 1014.2
20260905193027 25 324 6.4 16.1 0.00 3.48 2.11 73 1015.0
20260905192903 26 0 8.0 12.9 0.00 3.48 2.11 69 1014.3
20260905192402 26 12 6.4 16.1 0.00 3.48 2.11 69 1014.2
20260905191903 26 55 6.4 16.1 0.00 3.48 2.11 69 1014.2
20260905191530 25 19 4.8 14.5 0.00 3.48 2.11 71 1015.1
20260905191403 25 341 4.8 11.3 0.00 3.48 2.11 68 1014.3
20260905190903 25 344 8.0 11.3 0.00 3.48 2.11 68 1014.4
20260905190031 25 16 3.2 14.5 0.00 3.48 2.11 69 1015.2
20260905185903 26 51 6.4 14.5 0.00 3.48 2.11 67 1014.3
20260905185402 26 347 3.2 11.3 0.00 3.48 2.11 68 1014.4
20260905184903 25 306 3.2 14.5 0.00 3.48 2.11 70 1014.6
20260905184515 25 328 4.8 14.5 0.00 3.48 2.11 73 1015.4
20260905183903 26 16 6.4 14.5 0.00 3.48 2.11 67 1014.7
20260905183403 26 64 3.2 9.7 0.00 3.48 2.11 68 1014.8
20260905183020 25 223 3.2 14.5 0.00 3.48 2.11 71 1015.6
20260905182903 25 297 8.0 14.5 0.00 3.48 2.11 69 1014.8
20260905182403 25 292 3.2 9.7 0.00 3.48 2.11 71 1015.1
20260905181903 24 315 6.4 11.3 0.00 3.48 2.11 73 1015.2
20260905181529 24 303 8.0 19.3 0.00 3.48 2.11 72 1016.0
20260905181403 25 295 11.3 19.3 0.00 3.48 2.11 70 1015.4
20260905180902 25 52 1.6 8.0 0.00 3.48 2.11 71 1015.3
20260905180402 25 327 1.6 8.0 0.00 3.48 2.11 71 1015.3
20260905180032 25 334 4.8 14.5 0.00 3.48 2.11 72 1016.1
20260905175902 25 301 9.7 14.5 0.00 3.48 2.11 71 1015.4
20260905175402 25 312 3.2 14.5 0.00 3.48 2.11 72 1015.2
20260905174903 25 317 12.9 20.9 0.00 3.48 2.11 73 1015.3
20260905174541 24 327 6.4 24.1 0.00 3.48 2.11 75 1016.2
20260905174403 25 356 14.5 24.1 0.00 3.48 2.11 73 1015.4
20260905173002 24 289 9.7 17.7 0.00 3.48 2.11 76 1016.1
20260905172903 24 293 8.0 14.5 0.00 3.48 2.11 74 1015.5
20260905171902 24 17 9.7 16.1 0.00 3.48 2.11 74 1015.4
20260905171501 23 331 8.0 22.5 0.00 3.48 2.11 77 1016.3
20260905171403 23 315 9.7 19.3 0.00 3.48 2.11 76 1015.3
20260905170003 24 340 4.8 11.3 0.00 3.48 2.11 81 1016.1
20260905165403 24 320 4.8 9.7 0.00 3.48 2.11 76 1015.4
20260905164903 23 286 4.8 11.3 0.00 3.48 2.11 78 1015.3
20260905164502 23 346 8.0 16.1 0.00 3.48 2.11 79 1016.2
20260905163403 23 340 11.3 16.1 0.00 3.48 2.11 80 1015.6
20260905163002 22 334 6.4 22.5 0.00 3.48 2.11 81 1016.4
20260905162903 23 311 11.3 19.3 0.00 3.48 2.11 82 1015.8
20260905162402 23 331 12.9 22.5 0.00 3.48 2.11 84 1015.9
20260905161502 22 336 11.3 20.9 0.00 3.48 2.11 88 1016.6
20260905161403 22 342 14.5 20.9 0.00 3.48 2.11 87 1015.9
20260905160903 22 324 11.3 19.3 0.00 3.48 2.11 87 1016.0
20260905160002 21 272 0.0 6.4 0.00 3.48 2.11 90 1016.7
20260905155902 21 272 3.2 8.0 0.00 3.48 2.11 88 1016.0
20260905155403 21 112 3.2 8.0 0.00 3.48 2.11 91 1015.8
20260905154902 21 330 1.6 8.0 0.00 3.48 2.11 92 1015.7
20260905154502 21 340 4.8 12.9 0.00 3.48 2.11 94 1016.4
20260905154403 21 331 4.8 12.9 0.00 3.48 2.11 94 1015.6
20260905153402 20 280 9.7 12.9 0.00 3.48 2.11 95 1015.2
20260905153002 20 302 6.4 11.3 0.03 3.48 2.11 97 1016.0
20260905152902 20 281 8.0 11.3 0.03 3.48 2.11 96 1015.2
20260905152403 20 302 4.8 9.7 0.03 3.48 2.11 96 1015.2
20260905151506 19 285 1.6 6.4 0.05 3.48 2.11 98 1016.0
20260905151403 20 323 3.2 8.0 0.08 3.48 2.11 96 1015.3
20260905150403 19 305 3.2 9.7 0.13 3.48 2.11 96 1015.7
20260905150002 19 329 3.2 8.0 0.15 3.48 2.11 98 1016.7
20260905145903 19 293 3.2 8.0 0.15 3.48 2.11 96 1015.9
20260905145403 19 263 0.0 1.6 0.18 3.48 2.11 100 1016.0
20260905144903 19 263 1.6 3.2 0.20 3.48 2.11 100 1016.2
20260905144503 19 199 0.0 3.2 0.20 3.48 2.11 98 1017.2
20260905144403 19 199 0.0 3.2 0.20 3.48 2.11 100 1016.2
20260905143902 19 199 1.6 3.2 0.23 3.48 2.11 100 1016.5
20260905143402 19 199 0.0 1.6 0.25 3.48 2.11 100 1016.7
20260905143003 19 199 0.0 3.2 0.25 3.45 2.08 98 1017.6
20260905142903 19 199 0.0 1.6 0.25 3.45 2.08 100 1016.7
20260905142403 19 199 1.6 3.2 0.30 3.45 2.08 100 1016.8
20260905141903 19 305 0.0 1.6 0.33 3.43 2.06 100 1016.9
20260905141503 19 305 0.0 3.2 0.36 3.43 2.06 98 1017.8
20260905141402 19 305 1.6 3.2 0.33 3.40 2.03 100 1017.0
20260905140903 19 305 1.6 3.2 0.33 3.38 2.01 100 1017.2
20260905140003 18 126 0.0 6.4 0.36 3.33 1.96 98 1017.9
20260905135903 19 126 1.6 4.8 0.38 3.33 1.96 96 1017.0
20260905135403 19 138 4.8 8.0 0.46 3.30 1.93 96 1017.2
20260905134902 19 124 1.6 4.8 0.81 3.28 1.91 96 1017.8
20260905134503 19 247 0.0 4.8 1.32 3.28 1.91 98 1018.5
20260905134402 19 241 1.6 4.8 1.47 3.28 1.91 96 1017.9
20260905133902 19 225 3.2 4.8 1.75 3.25 1.88 96 1017.8
20260905133403 19 230 1.6 8.0 1.75 3.23 1.85 96 1017.8
20260905133005 19 277 3.2 8.0 1.73 3.20 1.83 98 1018.4
20260905132903 19 229 3.2 8.0 1.73 3.20 1.83 96 1017.7
20260905132403 19 231 1.6 9.7 1.68 3.15 1.78 96 1017.5
20260905131903 19 213 1.6 9.7 1.63 3.10 1.73 96 1017.3
20260905131503 19 219 1.6 14.5 1.60 3.07 1.70 98 1017.9
20260905131403 19 308 3.2 14.5 1.60 3.07 1.70 96 1017.0
20260905130903 19 235 3.2 9.7 1.57 3.05 1.68 100 1017.0
20260905130403 19 325 8.0 12.9 1.55 3.00 1.63 100 1017.1
20260905130004 19 261 3.2 19.3 1.52 2.95 1.60 98 1017.8
20260905125902 19 274 4.8 19.3 1.50 2.95 1.57 100 1016.9
20260905125402 19 347 8.0 19.3 1.45 2.84 1.47 100 1017.2
20260905124902 19 251 11.3 32.2 1.07 2.46 1.09 100 1017.3
20260905124503 18 324 4.8 14.5 0.56 1.96 0.58 99 1018.0
20260905124403 18 297 9.7 12.9 0.41 1.80 0.43 100 1016.6
20260905123403 18 161 0.0 0.0 0.08 1.47 0.10 100 1015.5
20260905123003 18 161 0.0 0.0 0.08 1.47 0.10 99 1016.2
20260905122903 18 161 0.0 0.0 0.08 1.47 0.10 100 1015.5
20260905122403 18 161 0.0 0.0 0.08 1.47 0.10 100 1015.4
20260905121903 18 161 0.0 0.0 0.08 1.47 0.10 100 1015.3
20260905121503 18 161 0.0 9.7 0.08 1.47 0.10 99 1016.1
20260905121402 18 161 1.6 4.8 0.08 1.47 0.10 100 1015.3
20260905120902 18 193 4.8 9.7 0.08 1.47 0.10 100 1015.5
20260905120403 18 144 1.6 4.8 0.05 1.45 0.08 100 1015.5
20260905120003 18 121 0.0 0.0 0.05 1.45 0.08 99 1016.2
20260905115902 18 121 0.0 0.0 0.05 1.45 0.08 100 1015.4
20260905115402 18 121 0.0 0.0 0.00 1.40 0.03 100 1015.3
20260905114903 18 121 0.0 1.6 0.00 1.40 0.03 100 1015.2
20260905114504 18 121 0.0 3.2 0.00 1.40 0.03 99 1015.9
20260905114403 18 121 0.0 3.2 0.00 1.40 0.03 100 1015.3
20260905113903 18 128 1.6 3.2 0.00 1.40 0.03 100 1015.3
20260905113403 18 254 1.6 4.8 0.00 1.40 0.03 100 1015.2
20260905113007 18 254 0.0 4.8 0.00 1.40 0.03 99 1015.9
20260905112903 18 316 1.6 4.8 0.00 1.40 0.03 100 1015.2
20260905112402 18 292 1.6 4.8 0.00 1.40 0.03 100 1015.2
20260905111903 18 243 3.2 4.8 0.00 1.40 0.03 100 1015.3
20260905111508 17 223 0.0 4.8 0.00 1.40 0.03 98 1016.1
20260905110903 18 155 0.0 0.0 0.00 1.40 0.03 100 1015.0
20260905110402 18 155 0.0 1.6 0.00 1.40 0.03 100 1015.0
20260905110010 18 155 0.0 3.2 0.00 1.40 0.03 98 1015.8
20260905105903 18 155 0.0 3.2 0.00 1.40 0.03 100 1014.9
20260905105403 18 155 1.6 3.2 0.00 1.40 0.03 100 1014.9
20260905104902 18 155 1.6 3.2 0.00 1.40 0.03 100 1014.9
20260905104508 18 168 1.6 4.8 0.00 1.40 0.03 99 1015.7
20260905104402 18 205 3.2 4.8 0.00 1.40 0.03 100 1015.0
20260905103903 18 294 0.0 3.2 0.00 1.40 0.03 100 1015.1
20260905103402 18 294 1.6 4.8 0.00 1.40 0.03 100 1015.0
20260905103017 18 294 0.0 0.0 0.00 1.40 0.03 98 1015.8
20260905102903 18 294 0.0 0.0 0.00 1.40 0.03 100 1015.0
20260905102403 18 294 0.0 0.0 0.00 1.40 0.03 100 1015.1
20260905101903 18 294 0.0 0.0 0.00 1.40 0.03 100 1015.0
20260905101509 18 294 0.0 0.0 0.00 1.40 0.03 98 1015.9
20260905101403 18 294 0.0 0.0 0.00 1.40 0.03 100 1015.2
20260905100903 18 294 0.0 0.0 0.00 1.40 0.03 100 1015.3
20260905100402 18 294 0.0 0.0 0.00 1.40 0.03 100 1015.2
20260905100009 18 294 0.0 0.0 0.00 1.40 0.03 98 1016.1
20260905095903 18 294 0.0 0.0 0.00 1.40 0.03 100 1015.2
20260905094903 18 294 0.0 0.0 0.00 1.42 0.03 100 1015.3
20260905094513 18 294 0.0 0.0 0.00 1.42 0.03 99 1016.1
20260905094403 18 294 0.0 0.0 0.00 1.42 0.03 100 1015.3
20260905093903 18 294 0.0 0.0 0.00 1.42 0.03 100 1015.2
20260905093403 18 294 0.0 0.0 0.00 1.42 0.03 100 1015.2
20260905093011 18 294 0.0 0.0 0.00 1.42 0.03 98 1016.0
20260905092403 18 294 0.0 0.0 0.00 1.42 0.03 100 1015.2
20260905091540 18 294 0.0 0.0 0.00 1.42 0.03 98 1016.1
20260905091403 18 294 0.0 0.0 0.00 1.42 0.03 100 1015.3
20260905090902 18 294 0.0 0.0 0.00 1.42 0.03 100 1015.2
20260905090403 18 294 0.0 0.0 0.00 1.42 0.03 100 1015.1
20260905090012 18 294 0.0 0.0 0.00 1.42 0.03 98 1016.0
20260905085903 18 294 0.0 0.0 0.00 1.42 0.03 100 1015.1
20260905084903 18 294 0.0 0.0 0.00 1.42 0.03 100 1015.1
20260905084515 18 294 0.0 0.0 0.00 1.42 0.03 98 1015.8
20260905084402 18 294 0.0 0.0 0.00 1.42 0.03 100 1015.1
20260905083903 18 294 0.0 0.0 0.00 1.42 0.03 100 1015.1
20260905083403 18 294 0.0 0.0 0.00 1.42 0.03 100 1015.1
20260905083003 18 294 0.0 0.0 0.00 1.42 0.03 98 1016.0
20260905082903 18 294 0.0 0.0 0.00 1.42 0.03 100 1015.1
20260905082403 18 294 0.0 0.0 0.00 1.42 0.03 100 1015.2
20260905081505 18 294 0.0 0.0 0.00 1.42 0.03 98 1016.1
20260905081403 18 294 0.0 0.0 0.00 1.42 0.03 100 1015.3
20260905080903 18 294 0.0 0.0 0.00 1.42 0.03 100 1015.3
20260905080007 18 294 0.0 0.0 0.00 1.42 0.03 98 1016.1
20260905075903 18 294 0.0 0.0 0.00 1.42 0.03 100 1015.3
20260905075402 18 294 0.0 0.0 0.00 1.42 0.03 100 1015.4
20260905074902 18 294 0.0 0.0 0.00 1.42 0.03 100 1015.4
20260905074513 18 294 0.0 0.0 0.03 1.42 0.03 98 1016.2
20260905074403 18 294 0.0 0.0 0.03 1.42 0.03 100 1015.5
20260905073903 18 294 0.0 0.0 0.03 1.42 0.03 100 1015.5
20260905073403 18 294 0.0 0.0 0.03 1.42 0.03 100 1015.6
20260905073018 18 294 0.0 0.0 0.03 1.42 0.03 98 1016.4
20260905072903 18 294 0.0 0.0 0.03 1.42 0.03 100 1015.6
20260905072403 18 294 0.0 0.0 0.03 1.42 0.03 100 1015.7
20260905071903 18 294 0.0 0.0 0.03 1.42 0.03 100 1015.8
20260905071504 18 294 0.0 0.0 0.03 1.42 0.03 98 1016.4
20260905071403 18 294 0.0 0.0 0.03 1.42 0.03 100 1015.8
20260905070903 18 294 0.0 0.0 0.03 1.42 0.03 100 1015.8
20260905070403 18 294 0.0 0.0 0.03 1.42 0.03 100 1016.0
20260905070004 18 294 0.0 0.0 0.03 1.42 0.03 98 1016.8
20260905065903 18 294 0.0 0.0 0.03 1.42 0.03 100 1016.1
20260905064902 18 294 0.0 0.0 0.03 1.42 0.03 100 1016.3
20260905064507 18 294 0.0 0.0 0.00 1.40 0.00 98 1017.2
20260905064402 18 294 0.0 0.0 0.00 1.40 0.00 100 1016.4
20260905063403 18 294 0.0 0.0 0.00 1.40 0.00 100 1016.5
20260905063014 18 294 0.0 0.0 0.00 1.40 0.00 98 1017.4
20260905062403 18 294 0.0 0.0 0.00 1.40 0.00 98 1016.7
20260905061903 18 294 0.0 0.0 0.00 1.40 0.00 100 1016.8
20260905061520 18 294 0.0 0.0 0.00 1.40 0.00 98 1017.7
20260905061403 18 294 0.0 0.0 0.00 1.40 0.00 100 1016.8
20260905060902 18 294 0.0 0.0 0.00 1.40 0.00 100 1016.9
20260905060003 18 294 0.0 0.0 0.00 1.40 0.00 98 1017.9
20260905055903 18 294 0.0 0.0 0.00 1.40 0.00 100 1017.2
20260905055403 18 294 0.0 0.0 0.00 1.40 0.00 100 1017.2
20260905054903 18 294 0.0 0.0 0.00 1.40 0.00 100 1017.2
20260905054508 18 294 0.0 0.0 0.00 1.40 0.00 98 1018.0
20260905054403 18 294 0.0 0.0 0.00 1.40 0.00 100 1017.4
20260905053902 18 294 0.0 0.0 0.00 1.40 0.00 100 1017.5
20260905053403 18 274 0.0 0.0 0.00 1.40 0.00 100 1017.5
20260905053010 18 274 0.0 0.0 0.00 1.40 0.00 98 1018.2
20260905052903 18 274 0.0 0.0 0.00 1.40 0.00 100 1017.6
20260905052403 18 274 0.0 0.0 0.00 1.40 0.00 99 1017.5
20260905051902 18 274 0.0 0.0 0.00 1.40 0.00 96 1017.5
20260905051516 18 274 0.0 0.0 0.00 1.40 0.00 98 1018.3
20260905050903 18 274 0.0 0.0 0.00 1.40 0.00 96 1017.7
20260905050403 18 274 0.0 0.0 0.00 1.40 0.00 96 1017.7
20260905050031 18 274 0.0 0.0 0.00 1.40 0.00 98 1018.4
20260905045902 18 274 0.0 0.0 0.00 1.40 0.00 96 1017.7
20260905045403 18 274 0.0 0.0 0.00 1.40 0.00 96 1017.7
20260905044503 18 274 0.0 0.0 0.00 1.40 0.00 98 1018.5
20260905044403 18 274 0.0 0.0 0.00 1.40 0.00 96 1017.8
20260905043403 18 274 0.0 0.0 0.00 1.47 0.00 96 1017.8
20260905043018 18 274 0.0 0.0 0.00 1.63 0.00 98 1018.5
20260905042903 18 274 0.0 0.0 0.00 1.63 0.00 97 1017.9
20260905042403 18 274 0.0 0.0 0.00 1.63 0.00 100 1017.9
20260905041903 18 274 0.0 0.0 0.00 1.63 0.00 100 1018.0
20260905041514 18 274 0.0 0.0 0.00 1.63 0.00 98 1018.6
20260905041403 18 274 0.0 0.0 0.00 1.63 0.00 100 1017.8
20260905040903 18 273 0.0 0.0 0.00 1.63 0.00 100 1017.8
20260905040402 18 273 0.0 3.2 0.00 1.63 0.00 96 1017.8
20260905040021 18 273 0.0 3.2 0.00 1.63 0.00 98 1018.5
20260905035903 18 273 0.0 3.2 0.00 1.63 1.63 96 1018.0
20260905034902 18 273 1.6 4.8 0.00 1.65 1.63 96 1018.0
20260905034527 18 259 1.6 4.8 0.00 1.88 1.63 98 1018.6
20260905034402 18 259 1.6 3.2 0.00 1.88 1.63 96 1017.9
20260905033903 18 259 1.6 4.8 0.00 1.88 1.63 96 1017.8
20260905033403 18 259 1.6 3.2 0.00 1.88 1.63 96 1017.9
20260905033033 18 259 0.0 1.6 0.00 1.88 1.63 98 1018.5
20260905032903 18 259 0.0 1.6 0.00 1.88 1.63 96 1017.8
20260905032403 18 259 0.0 1.6 0.00 1.88 1.63 96 1017.7
20260905031903 18 259 1.6 3.2 0.00 1.88 1.63 96 1017.8
20260905031510 18 259 0.0 1.6 0.00 1.88 1.63 98 1018.4
20260905031403 18 259 0.0 1.6 0.00 1.88 1.63 96 1017.7
20260905030903 18 259 0.0 0.0 0.00 1.88 1.63 96 1017.5
20260905030031 18 259 0.0 4.8 0.00 1.88 1.63 98 1018.2
20260905025403 18 259 0.0 4.8 0.00 1.88 1.63 96 1017.4
20260905024903 18 267 3.2 4.8 0.00 1.88 1.63 96 1017.3
20260905024524 18 313 1.6 6.4 0.00 1.88 1.63 97 1018.1
20260905024403 18 313 3.2 4.8 0.00 1.88 1.63 96 1017.3
20260905023903 18 318 1.6 8.0 0.00 1.88 1.63 96 1017.3
20260905023403 18 281 1.6 3.2 0.00 1.88 1.63 96 1017.3
20260905023033 18 281 0.0 3.2 0.00 1.88 1.63 98 1018.0
20260905022903 18 281 1.6 3.2 0.00 1.88 1.63 96 1017.3
20260905022403 18 281 1.6 3.2 0.00 1.88 1.63 96 1017.3
20260905021903 18 300 1.6 3.2 0.00 1.88 1.63 96 1017.3
20260905021534 18 300 1.6 4.8 0.00 1.88 1.63 97 1017.9
20260905021403 18 300 1.6 4.8 0.00 1.88 1.63 96 1017.2
20260905020904 18 300 3.2 4.8 0.00 1.88 1.63 96 1017.2
20260905020013 18 270 1.6 4.8 0.00 1.88 1.63 97 1017.8
20260905015902 18 270 1.6 3.2 0.00 1.88 1.63 96 1017.1
20260905015403 18 270 1.6 4.8 0.00 1.88 1.63 96 1017.1
20260905014903 18 270 1.6 3.2 0.00 1.88 1.63 96 1017.1
20260905014522 18 270 1.6 3.2 0.00 1.88 1.63 97 1017.7
20260905014402 18 270 1.6 3.2 0.00 1.88 1.63 96 1017.1
20260905013030 18 297 1.6 4.8 0.00 1.88 1.63 97 1017.8
20260905012903 19 297 3.2 4.8 0.00 1.88 1.63 96 1017.0
20260905012403 19 297 0.0 4.8 0.00 1.88 1.63 96 1017.1
20260905011903 19 297 0.0 0.0 0.00 1.88 1.63 96 1017.0
20260905011505 18 297 0.0 0.0 0.00 1.88 1.63 97 1017.7
20260905011403 19 297 0.0 0.0 0.00 1.88 1.63 95 1017.0
20260905010903 19 297 0.0 1.6 0.00 1.88 1.63 95 1017.0
20260905010016 19 252 1.6 6.4 0.00 1.88 1.63 97 1017.7
20260905005902 19 252 4.8 8.0 0.00 1.88 1.63 96 1016.8
20260905004902 19 288 3.2 4.8 0.00 1.88 1.63 95 1016.7
20260905004522 19 280 1.6 4.8 0.00 1.88 1.63 97 1017.5
20260905004403 19 280 3.2 4.8 0.00 1.88 1.63 95 1016.7
20260905003903 19 262 3.2 4.8 0.00 1.88 1.63 95 1016.7
20260905003403 19 275 1.6 4.8 0.00 1.88 1.63 95 1016.6
20260905003030 19 275 1.6 4.8 0.00 1.88 1.63 97 1017.5
20260905002403 20 275 1.6 4.8 0.00 1.88 1.63 95 1016.5
20260905001903 20 275 3.2 4.8 0.00 1.88 1.63 95 1016.5
20260905001544 19 275 1.6 6.4 0.00 1.88 1.63 97 1017.3
20260905001403 20 275 1.6 4.8 0.00 1.88 1.63 95 1016.4